• In Netherlands
  • List of Countries
  • For 7 days
  • Water Temperature
  • Satellite Maps
  • Weather Map
  • Weather Widgets
  • user-avatar
    Login

    Hourly Weather Strizhi

    Today, 22 October, Monday

    Time Temperature Precipitation Wind Pressure Humidity
    00:00 +17°C° 0.9 mm 3 mps 757 mmHg 85%
    01:00 +17°C° 0.1 mm 3 mps 757 mmHg 83%
    02:00 +16°C° 0.1 mm 3 mps 757 mmHg 81%
    03:00 +16°C° 0 mm 3 mps 757 mmHg 75%
    04:00 +16°C° 0 mm 3 mps 757 mmHg 74%
    05:00 +14°C° 0 mm 3 mps 757 mmHg 73%
    06:00 +14°C° 0 mm 4 mps 757 mmHg 72%
    07:00 +14°C° 0 mm 4 mps 757 mmHg 67%
    08:00 +15°C° 0 mm 4 mps 757 mmHg 62%
    09:00 +15°C° 0 mm 5 mps 758 mmHg 56%
    10:00 +17°C° 0 mm 5 mps 757 mmHg 51%
    11:00 +19°C° 0 mm 5 mps 757 mmHg 46%
    12:00 +20°C° 0 mm 5 mps 757 mmHg 41%
    13:00 +20°C° 0 mm 5 mps 757 mmHg 40%
    14:00 +20°C° 0 mm 5 mps 757 mmHg 40%
    15:00 +20°C° 0 mm 5 mps 757 mmHg 39%
    16:00 +19°C° 0 mm 4 mps 757 mmHg 43%
    17:00 +18°C° 0 mm 3 mps 757 mmHg 47%
    18:00 +17°C° 0 mm 2 mps 757 mmHg 51%
    19:00 +17°C° 0.3 mm 2 mps 757 mmHg 55%
    20:00 +17°C° 0.3 mm 2 mps 757 mmHg 58%
    21:00 +16°C° 0.3 mm 2 mps 757 mmHg 62%
    22:00 +16°C° 0.4 mm 3 mps 757 mmHg 67%
    23:00 +16°C° 0.4 mm 3 mps 756 mmHg 71%

    Tomorrow, 23 October, Tuesday

    Time Temperature Precipitation Wind Pressure Humidity
    00:00 +16°C° 0.4 mm 3 mps 756 mmHg 75%
    01:00 +14°C° 0.1 mm 3 mps 756 mmHg 79%
    02:00 +14°C° 0.1 mm 3 mps 756 mmHg 82%
    03:00 +14°C° 0.1 mm 4 mps 756 mmHg 85%
    04:00 +14°C° 0.1 mm 4 mps 755 mmHg 87%
    05:00 +14°C° 0.1 mm 4 mps 755 mmHg 89%
    06:00 +14°C° 0.1 mm 5 mps 755 mmHg 90%
    07:00 +14°C° 0 mm 5 mps 755 mmHg 87%
    08:00 +14°C° 0 mm 5 mps 755 mmHg 85%
    09:00 +14°C° 0 mm 5 mps 755 mmHg 82%
    10:00 +14°C° 0 mm 6 mps 755 mmHg 77%
    11:00 +15°C° 0 mm 6 mps 755 mmHg 72%
    12:00 +16°C° 0 mm 6 mps 754 mmHg 67%
    13:00 +15°C° 0 mm 6 mps 754 mmHg 66%
    14:00 +15°C° 0 mm 6 mps 754 mmHg 66%
    15:00 +15°C° 0 mm 6 mps 754 mmHg 66%
    16:00 +14°C° 0 mm 5 mps 754 mmHg 68%
    17:00 +13°C° 0 mm 4 mps 753 mmHg 71%
    18:00 +12°C° 0 mm 3 mps 753 mmHg 73%
    19:00 +12°C° 0 mm 3 mps 753 mmHg 75%
    20:00 +11°C° 0 mm 3 mps 753 mmHg 76%
    21:00 +11°C° 0 mm 3 mps 753 mmHg 78%
    22:00 +10°C° 0 mm 3 mps 753 mmHg 79%
    23:00 +10°C° 0 mm 3 mps 752 mmHg 80%

    Day after tomorrow, 24 October, Wednesday

    Time Temperature Precipitation Wind Pressure Humidity
    00:00 +9°C° 0 mm 3 mps 752 mmHg 80%
    01:00 +9°C° 0 mm 3 mps 752 mmHg 82%
    02:00 +9°C° 0 mm 3 mps 751 mmHg 84%
    03:00 +9°C° 0 mm 3 mps 751 mmHg 85%
    04:00 +8°C° 0 mm 3 mps 751 mmHg 86%
    05:00 +8°C° 0 mm 3 mps 750 mmHg 87%
    06:00 +8°C° 0 mm 3 mps 750 mmHg 87%
    07:00 +8°C° 0 mm 4 mps 749 mmHg 81%
    08:00 +10°C° 0 mm 5 mps 749 mmHg 74%
    09:00 +11°C° 0 mm 6 mps 749 mmHg 67%
    10:00 +14°C° 0 mm 6 mps 748 mmHg 63%
    11:00 +15°C° 0 mm 7 mps 747 mmHg 59%
    12:00 +17°C° 0 mm 7 mps 746 mmHg 55%
    13:00 +17°C° 0 mm 7 mps 745 mmHg 55%
    14:00 +17°C° 0 mm 8 mps 745 mmHg 56%
    15:00 +17°C° 0 mm 8 mps 744 mmHg 57%
    16:00 +16°C° 0.5 mm 7 mps 744 mmHg 64%
    17:00 +15°C° 0.5 mm 7 mps 743 mmHg 70%
    18:00 +14°C° 0.5 mm 6 mps 743 mmHg 77%
    19:00 +14°C° 0.8 mm 6 mps 742 mmHg 78%
    20:00 +14°C° 0.8 mm 7 mps 742 mmHg 78%
    21:00 +14°C° 0.8 mm 7 mps 742 mmHg 79%
    22:00 +14°C° 0.2 mm 7 mps 741 mmHg 81%
    23:00 +14°C° 0.2 mm 7 mps 740 mmHg 82%

    25 October, Thursday

    Time Temperature Precipitation Wind Pressure Humidity
    00:00 +14°C° 0.2 mm 6 mps 740 mmHg 84%
    01:00 +14°C° 0.2 mm 7 mps 740 mmHg 83%
    02:00 +14°C° 0.2 mm 7 mps 739 mmHg 82%
    03:00 +14°C° 0.2 mm 7 mps 739 mmHg 82%
    04:00 +12°C° 0.3 mm 7 mps 739 mmHg 81%
    05:00 +12°C° 0.3 mm 7 mps 739 mmHg 80%
    06:00 +11°C° 0.3 mm 7 mps 739 mmHg 79%
    07:00 +10°C° 0.1 mm 7 mps 740 mmHg 73%
    08:00 +10°C° 0.1 mm 7 mps 740 mmHg 67%
    09:00 +9°C° 0.1 mm 7 mps 741 mmHg 62%
    10:00 +9°C° 0 mm 7 mps 741 mmHg 58%
    11:00 +9°C° 0 mm 7 mps 742 mmHg 54%
    12:00 +10°C° 0 mm 8 mps 742 mmHg 51%
    13:00 +10°C° 0 mm 7 mps 742 mmHg 51%
    14:00 +10°C° 0 mm 7 mps 742 mmHg 50%
    15:00 +10°C° 0 mm 7 mps 742 mmHg 50%
    16:00 +9°C° 0 mm 6 mps 743 mmHg 52%
    17:00 +9°C° 0 mm 6 mps 743 mmHg 55%
    18:00 +8°C° 0 mm 5 mps 743 mmHg 57%
    19:00 +8°C° 0 mm 5 mps 744 mmHg 59%
    20:00 +8°C° 0 mm 5 mps 744 mmHg 61%
    21:00 +8°C° 0 mm 5 mps 744 mmHg 63%
    22:00 +7°C° 0 mm 5 mps 744 mmHg 66%
    23:00 +7°C° 0 mm 5 mps 744 mmHg 68%

    26 October, Friday

    Time Temperature Precipitation Wind Pressure Humidity
    00:00 +7°C° 0 mm 5 mps 745 mmHg 70%
    01:00 +6°C° 0 mm 5 mps 745 mmHg 72%
    02:00 +6°C° 0 mm 4 mps 745 mmHg 73%
    03:00 +5°C° 0 mm 4 mps 745 mmHg 74%
    04:00 +5°C° 0 mm 4 mps 745 mmHg 74%
    05:00 +5°C° 0 mm 4 mps 745 mmHg 75%
    06:00 +5°C° 0 mm 4 mps 746 mmHg 76%
    07:00 +6°C° 0 mm 4 mps 746 mmHg 73%
    08:00 +7°C° 0 mm 5 mps 746 mmHg 69%
    09:00 +7°C° 0 mm 5 mps 747 mmHg 66%
    10:00 +8°C° 0 mm 5 mps 747 mmHg 60%
    11:00 +9°C° 0 mm 5 mps 747 mmHg 55%
    12:00 +10°C° 0 mm 5 mps 747 mmHg 49%
    13:00 +11°C° 0 mm 4 mps 747 mmHg 50%
    14:00 +11°C° 0 mm 4 mps 747 mmHg 51%
    15:00 +11°C° 0 mm 4 mps 747 mmHg 52%
    16:00 +10°C° 0.2 mm 3 mps 748 mmHg 56%
    17:00 +9°C° 0.2 mm 3 mps 749 mmHg 61%
    18:00 +8°C° 0.2 mm 3 mps 749 mmHg 65%
    19:00 +8°C° 0.1 mm 3 mps 750 mmHg 64%
    20:00 +6°C° 0.1 mm 4 mps 751 mmHg 63%
    21:00 +6°C° 0.1 mm 4 mps 752 mmHg 62%
    22:00 +5°C° 0 mm 4 mps 753 mmHg 60%
    23:00 +5°C° 0 mm 5 mps 754 mmHg 58%

    27 October, Saturday

    Time Temperature Precipitation Wind Pressure Humidity
    00:00 +3°C° 0 mm 5 mps 755 mmHg 56%
    01:00 +3°C° 0 mm 5 mps 756 mmHg 58%
    02:00 +4°C° 0 mm 4 mps 756 mmHg 60%
    03:00 +3°C° 0 mm 4 mps 757 mmHg 61%
    04:00 +3°C° 0 mm 4 mps 758 mmHg 64%
    05:00 +3°C° 0 mm 4 mps 758 mmHg 67%
    06:00 +2°C° 0 mm 3 mps 759 mmHg 70%
    07:00 +4°C° 0 mm 4 mps 760 mmHg 67%
    08:00 +5°C° 0 mm 4 mps 760 mmHg 64%
    09:00 +6°C° 0 mm 5 mps 761 mmHg 62%
    10:00 +7°C° 0 mm 5 mps 761 mmHg 55%
    11:00 +8°C° 0 mm 5 mps 762 mmHg 49%
    12:00 +10°C° 0 mm 5 mps 762 mmHg 43%
    13:00 +10°C° 0 mm 5 mps 762 mmHg 43%
    14:00 +12°C° 0 mm 5 mps 762 mmHg 43%
    15:00 +12°C° 0 mm 5 mps 762 mmHg 43%
    16:00 +11°C° 0 mm 4 mps 762 mmHg 49%
    17:00 +10°C° 0 mm 3 mps 762 mmHg 55%
    18:00 +9°C° 0 mm 3 mps 762 mmHg 60%
    19:00 +9°C° 0 mm 3 mps 762 mmHg 63%
    20:00 +9°C° 0 mm 3 mps 763 mmHg 67%
    21:00 +8°C° 0 mm 3 mps 763 mmHg 70%
    22:00 +8°C° 0 mm 3 mps 763 mmHg 70%
    23:00 +8°C° 0 mm 3 mps 763 mmHg 71%

    28 October, Sunday

    Time Temperature Precipitation Wind Pressure Humidity
    00:00 +8°C° 0 mm 3 mps 763 mmHg 71%
    01:00 +7°C° 0 mm 4 mps 763 mmHg 73%
    02:00 +7°C° 0 mm 4 mps 763 mmHg 75%
    03:00 +6°C° 0 mm 4 mps 763 mmHg 77%
    04:00 +6°C° 0 mm 4 mps 764 mmHg 77%
    05:00 +7°C° 0 mm 4 mps 764 mmHg 78%
    06:00 +7°C° 0 mm 4 mps 764 mmHg 78%
    07:00 +8°C° 0 mm 5 mps 764 mmHg 71%
    08:00 +9°C° 0 mm 5 mps 764 mmHg 64%
    09:00 +10°C° 0 mm 6 mps 764 mmHg 57%
    10:00 +13°C° 0 mm 6 mps 764 mmHg 53%
    11:00 +15°C° 0 mm 6 mps 764 mmHg 49%
    12:00 +16°C° 0 mm 6 mps 764 mmHg 44%
    13:00 +17°C° 0 mm 6 mps 764 mmHg 42%
    14:00 +17°C° 0 mm 5 mps 764 mmHg 41%
    15:00 +17°C° 0 mm 5 mps 763 mmHg 39%
    16:00 +16°C° 0 mm 5 mps 763 mmHg 42%
    17:00 +14°C° 0 mm 4 mps 763 mmHg 46%
    18:00 +13°C° 0 mm 4 mps 763 mmHg 49%
    19:00 +12°C° 0 mm 4 mps 763 mmHg 51%
    20:00 +12°C° 0 mm 4 mps 763 mmHg 52%
    21:00 +11°C° 0 mm 4 mps 763 mmHg 54%
    22:00 +11°C° 0 mm 4 mps 763 mmHg 55%
    23:00 +10°C° 0 mm 3 mps 763 mmHg 57%
    Show more